Location: Oriwa
(40.7500°S, 175.3333°E)
Time: 14:11:52
(UTC+00:00)

USA 267 - Pass Details

Date: 03 February 2023
Orbit: 1101 x 1106 km, 123.0° (Epoch: 27 March)

Event Time Altitude Azimuth Distance (km) Brightness Sun altitude
Exits shadow 13:02:29 47° 257° (WSW) 1,448 3.8 -32.3°
Drops below altitude 10° 13:07:14 10° 232° (SW) 2,993 5.8 -32.2°
Sets 13:09:47 0° 229° (SW) 3,956 6.6 -32.1°
